Date,TemperatureHighF,TemperatureAvgF,TemperatureLowF,DewpointHighF,DewpointAvgF,DewpointLowF,HumidityHigh,HumidityAvg,HumidityLow,PressureMaxIn,PressureMinIn,WindSpeedMaxMPH,WindSpeedAvgMPH,GustSpeedMaxMPH,PrecipitationSumIn
2013-1-1,74,73,72,-100,-100,-100,0,0,100,30.21,30.07,22,14,27,0.00
2013-1-2,75,72,67,-100,-100,-100,0,0,100,30.10,30.01,16,9,18,0.00
2013-1-3,77,73,68,-100,-100,-100,0,0,100,30.14,30.04,17,-84,19,0.00
2013-1-4,75,72,68,-100,-100,-100,0,0,100,30.24,30.11,18,9,20,0.00
2013-1-5,74,70,67,-100,-100,-100,0,0,100,30.26,30.17,18,-20,20,0.00
2013-1-6,76,75,69,-100,-100,-100,0,0,100,30.21,30.07,17,-17,19,0.00
2013-1-7,76,72,69,-100,-100,-100,0,0,100,30.17,30.08,23,11,26,0.00
2013-1-8,77,76,71,-100,-100,-100,0,0,100,30.22,30.09,21,14,27,0.00
2013-1-9,78,77,74,-100,-100,-100,0,0,100,30.29,30.17,22,17,27,0.00
2013-1-10,77,76,75,-100,-100,-100,0,0,100,30.31,30.20,24,18,27,0.00
2013-1-11,76,75,73,-100,-100,-100,0,0,100,30.27,30.17,21,17,29,0.00
2013-1-12,76,75,75,-100,-100,-100,0,0,100,30.19,30.11,21,13,23,0.00
2013-1-13,76,75,74,-100,-100,-100,0,0,100,30.14,30.08,20,15,24,0.00
2013-1-14,76,75,74,-100,-100,-100,0,0,100,30.19,30.14,17,12,21,0.00
2013-1-15,76,75,74,-100,-100,-100,0,0,100,30.15,30.06,18,13,21,0.00
2013-1-16,76,75,71,-100,-100,-100,0,0,100,30.12,30.03,17,-9,18,0.00
2013-1-17,76,71,62,-100,-100,-100,0,0,100,30.10,29.98,24,12,28,0.00
2013-1-18,71,63,52,-100,-100,-100,0,0,100,30.23,30.09,23,14,28,0.00
2013-1-19,74,70,67,-100,-100,-100,0,0,100,30.23,30.11,17,1,21,0.00
2013-1-20,74,71,66,-100,-100,-100,0,0,100,30.15,30.03,20,11,22,0.00
2013-1-21,75,73,67,-100,-100,-100,0,0,100,30.08,29.97,17,9,20,0.00
2013-1-22,72,68,63,-100,-100,-100,0,0,100,30.23,30.00,27,17,34,0.00
2013-1-23,71,68,62,-100,-100,-100,0,0,100,30.30,30.21,23,14,28,0.00
2013-1-24,70,67,62,-100,-100,-100,0,0,100,30.30,30.22,21,12,26,0.00
2013-1-25,74,67,60,-100,-100,-100,0,0,100,30.30,30.19,15,-6,19,0.00
2013-1-26,73,69,62,-100,-100,-100,0,0,100,30.27,30.18,14,8,17,0.00
2013-1-27,74,72,67,-100,-100,-100,0,0,100,30.30,30.21,17,10,20,0.00
2013-1-28,75,74,73,-100,-100,-100,0,0,100,30.33,30.24,21,16,24,0.00
2013-1-29,75,74,72,-100,-100,-100,0,0,100,30.25,30.14,20,16,23,0.00
2013-1-30,75,74,73,-100,-100,-100,0,0,100,30.14,29.98,25,19,29,0.00
2013-1-31,75,64,60,-100,-100,-100,0,0,100,30.19,29.99,22,11,25,0.00